Terminal Aerodrome Forecast
Issued by NWS

Home | Current Version | Previous Version | Text Only | Print | Product List | Glossary On
Versions: 1 2 3 4 5 6 7 8 9 10 11 12 13 14 15 16 17 18 19 20
000
FTUS41 KGYX 312320
TAFRKD
TAF
KRKD 312320Z 0100/0124 02005KT P6SM BKN050
     FM010900 05011KT P6SM OVC035
     FM011500 05013G20KT P6SM OVC025
     FM011900 02014KT 6SM -RA BR OVC015
      AMD LTD TO CLD VIS AND WIND=

USA.gov is the U.S. government's official web portal to all federal, state and local government web resources and services.